Location: Asis
(14.1331°N, 120.9056°E)
Time: 04:12:38
(UTC+00:00)

Meteor 1-24 Rocket - Pass Details

Date: 15 January 2026
Orbit: 790 x 925 km, 81.3° (Epoch: 10 February)

Event Time Altitude Azimuth Distance (km) Brightness Sun altitude
Rises 10:51:54 0° 166° (SSE) 3,305 6.8 -15.6°
Reaches altitude 10° 10:54:26 10° 157° (SSE) 2,390 6.0 -16.2°
Maximum altitude 10:59:17 35° 92° (E) 1,311 4.2 -17.3°
Enters shadow 11:01:01 28° 57° (ENE) 1,503 4.4 -17.7°
